Regional Weather Roundup
Issued by NWS

Home | Current Version | Previous Version | Graphics & Text | Print | Product List | Glossary On
Versions: 1 2 3 4 5 6 7 8 9 10 11 12 13 14 15 16 17 18 19 20 21 22 23 24 25 26 27 28 29 30 31 32 33 34 35 36 37 38 39 40 41 42 43 44 45 46 47 48 49 50
000
ASUS44 KMEG 311610
RWRTN
TENNESSEE HOURLY STATE WEATHER ROUNDUP
NATIONAL WEATHER SERVICE MEMPHIS TN
1100 AM CDT THU JUL 31 2014

TNZ002-004-019-021-049-052-054-088>092-311700-
WEST TENNESSEE

CITY           SKY/WX    TMP DP  RH WIND       PRES   REMARKS
MEMPHIS INTL   CLOUDY    74  64  71 NW5       30.12R
NWS MEMPHIS      N/A     74 N/A N/A MISG        N/A
JACKSON        CLOUDY    75  62  64 E3        30.11S
DYERSBURG      CLOUDY    73  59  60 CALM      30.12S
UNION CITY     PTSUNNY   72  64  78 CALM      30.11S
PARIS          MOSUNNY   76  59  55 S5        30.13S
LEXINGTON      SUNNY     75  61  60 SE3       30.11S
SAVANNAH       CLOUDY    76  64  66 CALM      30.11S
$$

TNZ008-025-027-028-033-062-065-066-311700-
NORTH MIDDLE TENNESSEE

CITY           SKY/WX    TMP DP  RH WIND       PRES   REMARKS
NASHVILLE      PTSUNNY   79  60  52 E9        30.12S
DICKSON        MOSUNNY   77  59  53 E6        30.12S
PORTLAND       SUNNY     77  57  50 NE3       30.11S
CLARKSVILLE    SUNNY     80  56  43 SE6       30.11S
LEBANON        MOSUNNY   77  60  55 NE6       30.11S
SMYRNA         MOSUNNY   82  63  52 CALM      30.12F
MURFREESBORO   MOSUNNY   74  62  66 CALM      30.11F
COOKEVILLE     SUNNY     75  64  69 E3        30.13S
GALLATIN       MOSUNNY   79  62  55 E5        30.12F
CROSSVILLE     CLOUDY    72  58  61 NE6       30.17R
$$

TNZ061-075-076-078-094-096-097-311700-
SOUTH MIDDLE TENNESSEE

CITY           SKY/WX    TMP DP  RH WIND       PRES   REMARKS
LEWISBURG      MOSUNNY   72  61  68 CALM      30.12R
FAYETTEVILLE   SUNNY     72  61  68 NE13G21   30.12R
TULLAHOMA      SUNNY     72  59  64 VRB5      30.14R
WINCHESTER     SUNNY     73  63  68 CALM      30.12S
MCMINNVILLE    SUNNY     72  66  83 NE5       30.13S
COLUMBIA       SUNNY     75  63  64 VRB3      30.10F
SHELBYVILLE    SUNNY     73  64  73 VRB3      30.13S
$$

TNZ017-018-042-046-047-311700-
NORTHEAST TENNESSEE

CITY           SKY/WX    TMP DP  RH WIND       PRES   REMARKS
TRI CITIES     PTSUNNY   73  58  59 VRB3      30.16S
ELIZABETHTON   SUNNY     72  57  60 CALM        N/A
$$

TNZ012-013-036-069-073-074-311700-
CENTRAL EAST TENNESSEE

CITY           SKY/WX    TMP DP  RH WIND       PRES   REMARKS
KNOXVILLE      CLOUDY    71  60  68 E6        30.13R
OAK RIDGE      CLOUDY    73  62  68 VRB5      30.14S
GATLINBURG     SUNNY     72  59  64 CALM      30.13S
MORRISTOWN     SUNNY     73  61  64 NE5       30.15F
$$

TNZ083-085-099-311700-
SOUTHEAST TENNESSEE

CITY           SKY/WX    TMP DP  RH WIND       PRES   REMARKS
CHATTANOOGA    CLOUDY    72  60  66 NE8       30.12R
$$

SKY/WX REPORTED AS FAIR MEANS FEW OR NO CLOUDS BELOW
12 THOUSAND FEET.



USA.gov is the U.S. government's official web portal to all federal, state and local government web resources and services.